STARLINK-4719, 53774

Orbit data source: Space-Track

STARLINK-4719, 53774 is a payload satellite owned by SpaceX/Seattle (US) in LEO that was launched on Sun, 11 Sep 2022 UTC via an FALCON 9 launch vehicle from the Air Force Eastern Test Range (AFETR). Payload-class satellites include a variety of spacecraft equipped with specific instruments for various scientific and technological missions. These include communications satellites like Starlink; space stations such as the ISS; scientific satellites like the Hubble; Earth observation satellites from companies like Planet Labs, Umbra, and HawkEye 360; GPS; miniature CubeSats for education and research; and military/defense satellites.

Loading next visibility...
Identifier
53774, 2022-111B
Orbit
LEO
Country
Flag of USUS
Related business
Manufacturer
SpaceX/Seattle
Mission
Operational Commercial Communications
Bus & Motor
STARLINK, Unknown motor
Mass
305 kg wet, ~290 kg dry
Launch date (UTC)
2022-09-11 (4 years ago)
Launch vehicle
FALCON 9
Launch site
Air Force Eastern Test Range (AFETR)
Object type
Payload
Rocket body
Debris
Shape & HBR
Box + 1 Pan, 10.1 m
Radar Cross Section
13.562 m², Large (>1 m²)

Expand to show TLE details & history
Last TLE update: 22 hours ago

TLE from 22 hours ago
0 STARLINK-4719
1 53774U 22111B   26129.93660550 -.00000805  00000-0 -32508-4 0  9994
2 53774  53.2194   9.0555 0001598  96.5992 263.5183 15.08832979202957
Epoch: 2026-05-09T22:28Z
TLE epoch observation values (Epoch: 2026-05-09T22:28:42.715Z)
Latitude
0.00006°
Longitude
164.13068°
Altitude
540.787 km
Speed
7.593 km/s
True Right ascension
00h 36m 13s
True Declination
0° 00' 00"
Sunlit
Object was in daylight at epoch
Visualization orbit readout
Latitude
Unknown
Longitude
Unknown
Altitude
Unknown
Speed
Unknown
Apparent Right ascension
Unknown
Apparent Declination
Unknown
Sunlit
N/A
Visualization observer readout
Local Sidereal Time
05:00:21
Azimuth
Unknown
Elevation
Unknown
Doppler factor
Unknown
Orbital elements
Apogee altitude
541.115 km
Perigee altitude
538.904 km
Semi-major axis
6,918.146 km
Eccentricity
0.00016
Inclination
53.2194°
RAAN
9.0555°
Arg. of periapsis
96.5992°
True anomaly
263.50011°
Mean anomaly
263.5183°
Eccentric anomaly
263.5092°
Mean motion
3.77189 °/min
Orbital period
95.44 mins
BSTAR
-0.000032508
Loading maneuver chart data...
Computing Atmospheric mass density...
Loading historical data...
Loading historical data...
Loading historical data...
Loading historical data...
Loading historical data...
Loading historical data...
Loading historical data...

Documentation

Showing up to 5 results
|